Date String (YYYY-MM-DD hh:mm:ss) UTC,Instrument flags,absolute air pressure of the measurement (hPa),sample flow rate (lpm),inlet stack bypass flow (lpm),air temperature of the measurement (°C),ambient temperature measured by the external sensor (°C),aerosol sample conditioner tube jacket temperature (°C),OPC LED temperature (°C),internal box temperature (°C),relative humidity of the measurement (%),span deviation,mass concentration of particles derived from Lorenz-Mie calculation of OPC scattering (μg/m³),mass concentration of particles derived from Lorenz-Mie calculation of OPC scattering (μg/m³),mass concentration of particles derived from Lorenz-Mie calculation of OPC scattering (μg/m³)
DateTimeUTC,F1_M11,P_M11,Q1_M11,Q2_M11,T1_M11,T2_M11,T3_M11,T4_M11,T5_M11,U1_M11,ZSPAN_M11,X2_M11,X0_M11,X1_M11
2023-07-16 21:00:00,SystemResetWarning,0834.7,5.01,000.00,029.3,025.0,000.0,037.4,030.2,30.4,0000.2,0013.40,0021.93,0012.55
2023-07-16 21:01:00,SystemResetWarning,0835.2,4.99,000.00,029.2,025.4,000.0,037.4,030.2,30.6,0000.3,0013.31,0021.55,0012.46
2023-07-16 21:02:00,SystemResetWarning,0835.0,5.00,000.00,029.1,025.8,000.0,037.4,030.2,30.5,0000.3,0013.23,0021.08,0012.39
2023-07-16 21:03:00,SystemResetWarning,0835.0,5.00,000.00,029.1,026.3,000.0,037.5,030.3,30.7,0000.3,0013.12,0020.98,0012.29
2023-07-16 21:04:00,SystemResetWarning,0835.0,5.00,000.00,029.2,026.7,000.0,037.5,030.5,30.0,0000.2,0013.04,0021.36,0012.23
2023-07-16 21:05:00,SystemResetWarning,0834.6,5.00,000.00,029.2,027.1,000.0,037.5,030.5,30.2,0000.2,0012.96,0021.47,0012.14
2023-07-16 21:06:00,SystemResetWarning,0834.7,5.00,000.00,029.2,027.4,000.0,037.5,030.6,30.1,0000.3,0012.87,0021.64,0012.07
2023-07-16 21:07:00,SystemResetWarning,0835.0,4.98,000.00,029.3,026.8,000.0,037.4,030.6,29.6,0000.4,0012.77,0021.56,0011.97
2023-07-16 21:08:00,SystemResetWarning,0835.0,5.00,000.00,029.2,025.3,000.0,037.3,030.4,30.1,0000.5,0012.63,0021.18,0011.86
2023-07-16 21:09:00,SystemResetWarning,0835.0,5.02,000.00,029.1,024.7,000.0,037.2,030.2,31.2,0000.4,0012.50,0020.48,0011.74
2023-07-16 21:10:00,SystemResetWarning,0834.5,5.00,000.00,029.0,025.0,000.0,037.2,030.0,30.0,0000.3,0012.40,0019.89,0011.64
2023-07-16 21:11:00,SystemResetWarning,0834.5,5.00,000.00,029.0,025.4,000.0,037.3,030.0,30.0,-000.0,0012.33,0018.91,0011.55
2023-07-16 21:12:00,SystemResetWarning,0834.5,5.00,000.00,028.9,025.9,000.0,037.3,030.2,30.1,-000.2,0012.21,0018.79,0011.47
2023-07-16 21:13:00,SystemResetWarning,0834.5,5.00,000.00,029.0,026.3,000.0,037.3,030.3,30.7,0000.0,0012.08,0018.27,0011.39
2023-07-16 21:14:00,SystemResetWarning,0834.4,5.00,000.00,029.0,026.8,000.0,037.3,030.4,30.7,0000.0,0012.02,0018.31,0011.32
2023-07-16 21:15:00,SystemResetWarning,0834.4,4.99,000.00,029.0,027.1,000.0,037.3,030.5,30.3,0000.1,0011.93,0017.95,0011.23
2023-07-16 21:16:00,SystemResetWarning,0834.5,5.00,000.00,029.1,027.4,000.0,037.4,030.6,29.4,-000.1,0011.85,0018.82,0011.16
2023-07-16 21:17:00,SystemResetWarning,0834.4,4.99,000.00,029.1,027.0,000.0,037.3,030.5,29.4,-000.2,0011.78,0018.55,0011.08
2023-07-16 21:18:00,SystemResetWarning,0834.3,4.99,000.00,029.0,025.5,000.0,037.2,030.3,29.3,-000.2,0011.74,0019.09,0011.02
2023-07-16 21:19:00,SystemResetWarning,0834.5,5.01,000.00,029.0,024.8,000.0,037.1,030.1,30.3,-000.2,0011.73,0019.41,0010.97
2023-07-16 21:20:00,SystemResetWarning,0834.6,5.01,000.00,028.9,025.0,000.0,037.1,030.0,31.1,-000.3,0011.71,0019.36,0010.93
2023-07-16 21:21:00,SystemResetWarning,0834.3,5.01,000.00,028.8,025.4,000.0,037.1,030.0,30.6,-000.5,0011.68,0019.34,0010.89
2023-07-16 21:22:00,SystemResetWarning,0834.2,5.00,000.00,028.8,025.9,000.0,037.2,030.1,30.6,-000.2,0011.66,0019.85,0010.84
2023-07-16 21:23:00,SystemResetWarning,0834.4,5.00,000.00,028.8,026.4,000.0,037.2,030.3,29.8,-000.1,0011.63,0020.41,0010.78
2023-07-16 21:24:00,SystemResetWarning,0834.5,5.00,000.00,028.9,026.8,000.0,037.2,030.3,29.3,-000.3,0011.61,0020.39,0010.74
2023-07-16 21:25:00,SystemResetWarning,0834.4,5.00,000.00,028.9,027.1,000.0,037.2,030.4,29.7,-000.3,0011.53,0020.28,0010.68
2023-07-16 21:26:00,SystemResetWarning,0834.5,4.99,000.00,028.9,027.4,000.0,037.3,030.5,30.1,-000.4,0011.47,0020.39,0010.61
2023-07-16 21:27:00,SystemResetWarning,0834.2,5.00,000.00,029.0,027.6,000.0,037.3,030.6,30.8,-000.3,0011.43,0019.90,0010.57
2023-07-16 21:28:00,SystemResetWarning,0834.2,4.99,000.00,029.0,026.7,000.0,037.2,030.5,28.9,-000.3,0011.38,0019.45,0010.50
2023-07-16 21:29:00,SystemResetWarning,0834.2,5.00,000.00,028.9,025.2,000.0,037.1,030.2,28.8,-000.3,0011.35,0019.16,0010.44
2023-07-16 21:30:00,SystemResetWarning,0834.1,5.00,000.00,028.9,024.9,000.0,037.0,030.1,29.1,-000.4,0011.29,0018.83,0010.37
2023-07-16 21:31:00,SystemResetWarning,0834.2,5.01,000.00,028.8,025.2,000.0,037.0,030.0,29.1,-000.4,0011.18,0018.99,0010.28
2023-07-16 21:32:00,SystemResetWarning,0834.1,4.99,000.00,028.8,025.6,000.0,037.1,030.1,28.8,-000.0,0011.13,0019.06,0010.19
2023-07-16 21:33:00,SystemResetWarning,0834.1,4.99,000.00,028.8,026.1,000.0,037.1,030.2,29.3,-000.2,0011.04,0019.37,0010.10
2023-07-16 21:34:00,SystemResetWarning,0834.1,5.00,000.00,028.8,026.5,000.0,037.1,030.3,29.5,-000.2,0010.97,0019.64,0010.02
2023-07-16 21:35:00,SystemResetWarning,0834.1,5.00,000.00,028.8,026.9,000.0,037.2,030.4,30.5,-000.3,0010.85,0019.41,0009.91
2023-07-16 21:36:00,SystemResetWarning,0834.1,5.01,000.00,028.9,027.2,000.0,037.2,030.5,30.9,-000.5,0010.75,0019.19,0009.82
2023-07-16 21:37:00,SystemResetWarning,0834.1,5.00,000.00,028.9,027.5,000.0,037.2,030.6,29.0,-000.6,0010.67,0018.94,0009.75
2023-07-16 21:38:00,SystemResetWarning,0834.1,4.98,000.00,029.0,026.8,000.0,037.1,030.6,29.0,-000.7,0010.59,0018.13,0009.66
2023-07-16 21:39:00,SystemResetWarning,0834.0,5.00,000.00,028.9,025.2,000.0,037.0,030.3,28.7,-001.0,0010.54,0018.22,0009.61
2023-07-16 21:40:00,SystemResetWarning,0834.0,5.01,000.00,028.8,024.7,000.0,037.0,030.1,29.3,-000.9,0010.45,0017.89,0009.57
2023-07-16 21:41:00,SystemResetWarning,0834.0,5.01,000.00,028.7,025.0,000.0,037.0,030.0,29.7,-000.6,0010.42,0017.80,0009.54
2023-07-16 21:42:00,SystemResetWarning,0834.0,4.99,000.00,028.7,025.5,000.0,037.0,030.0,29.9,-000.3,0010.46,0017.65,0009.54
2023-07-16 21:43:00,SystemResetWarning,0834.0,5.00,000.00,028.7,025.9,000.0,037.0,030.1,29.5,-000.6,0010.44,0017.20,0009.56
2023-07-16 21:44:00,SystemResetWarning,0834.0,5.01,000.00,028.7,026.4,000.0,037.1,030.2,30.1,-000.3,0010.45,0017.03,0009.60
2023-07-16 21:45:00,SystemResetWarning,0834.0,5.00,000.00,028.8,026.8,000.0,037.1,030.3,30.1,-000.3,0010.44,0015.84,0009.63
2023-07-16 21:46:00,SystemResetWarning,0834.0,4.99,000.00,028.8,027.2,000.0,037.1,030.4,28.6,-000.3,0010.48,0016.41,0009.66
2023-07-16 21:47:00,SystemResetWarning,0833.9,4.99,000.00,028.9,027.5,000.0,037.2,030.5,28.3,-000.1,0010.56,0016.65,0009.68
2023-07-16 21:48:00,SystemResetWarning,0833.9,5.00,000.00,028.9,027.0,000.0,037.1,030.5,28.4,0000.3,0010.62,0016.78,0009.69
2023-07-16 21:49:00,SystemResetWarning,0834.0,5.00,000.00,028.9,025.4,000.0,037.0,030.3,28.7,0000.7,0010.61,0017.21,0009.71
2023-07-16 21:50:00,SystemResetWarning,0833.9,5.01,000.00,028.8,024.8,000.0,036.9,030.1,28.5,0000.8,0010.61,0017.76,0009.71
2023-07-16 21:51:00,SystemResetWarning,0833.9,5.01,000.00,028.7,025.0,000.0,036.9,030.0,29.1,0000.9,0010.61,0018.65,0009.69
2023-07-16 21:52:00,SystemResetWarning,0833.9,5.00,000.00,028.6,025.4,000.0,037.0,030.0,29.5,0000.6,0010.59,0018.97,0009.68
2023-07-16 21:53:00,SystemResetWarning,0833.9,4.99,000.00,028.7,025.9,000.0,037.0,030.1,29.8,0000.1,0010.50,0018.74,0009.64
2023-07-16 21:54:00,SystemResetWarning,0833.9,5.01,000.00,028.7,026.3,000.0,037.0,030.2,29.2,0000.4,0010.46,0018.69,0009.60
2023-07-16 21:55:00,SystemResetWarning,0833.9,5.01,000.00,028.7,026.8,000.0,037.0,030.3,28.2,0000.4,0010.38,0018.07,0009.54
2023-07-16 21:56:00,SystemResetWarning,0833.8,5.00,000.00,028.8,027.1,000.0,037.1,030.4,28.2,0000.4,0010.33,0017.87,0009.49
2023-07-16 21:57:00,SystemResetWarning,0833.8,5.00,000.00,028.8,027.4,000.0,037.1,030.5,29.0,0000.8,0010.27,0017.30,0009.41
2023-07-16 21:58:00,SystemResetWarning,0833.9,4.99,000.00,028.9,027.1,000.0,037.1,030.5,27.8,0000.8,0010.18,0017.68,0009.35
2023-07-16 21:59:00,SystemResetWarning,0833.8,5.00,000.00,028.8,025.6,000.0,037.0,030.3,27.7,0000.9,0010.09,0017.53,0009.28
